Meteo Giornale » Osservazioni meteo Stati Uniti (USA) » Groton-New London

ore: 17:56 - Osservazioni Meteo Groton-New London
Lat. 41° 19' N Lon. 72° 2' W Alt. 3 metri s.l.m.

coperto

17 °C

Coperto

Temp. 24 Ore

17 °C

21 °C

Est/Nord-Est

14.8 Km/h

Dew point 16 °C

Umidità 93 %

Visibilità  10 Km

Il sole sorge alle ore 06:14

Il sole tramonta alle ore 19:21

Data e Ora Cielo e Fenomeni T °C DP °C Um. % Pres. hPa Vis. km Vento km/h
Oggi h: 17:56 coperto Coperto 17 16 93 1017 10 E/NE 14.8
Oggi h: 17:30 coperto Coperto 17 16 93 1017 10 E/NE 20.3
Oggi h: 16:56 coperto_pioggia Pioggia 17 16 93 1016 10 E/NE 18.5
Oggi h: 15:56 coperto Coperto 19 16 82 1016 10 E/NE 18.5
Oggi h: 14:56 coperto Coperto 19 16 82 1015 10 E 24
Oggi h: 13:56 foschia Foschia 18 17 93 1016 5 E 24
Oggi h: 13:20 foschia Foschia 18 17 93 1016 3 E/SE 29.6
Oggi h: 12:56 coperto_pioggia Pioggia Foschia 17 16 93 1016 6 E 31.5
Oggi h: 11:56 coperto Coperto 21 20 94 1016 10 E 16.7
Oggi h: 11:14 coperto Coperto 21 19 88 1016 10 E/SE 13
Oggi h: 11:03 coperto_pioggia Pioggia 20 19 93 1017 10 E 7.4
Oggi h: 10:56 coperto_pioggia Pioggia 20 19 93 1017 13 E 9.3
Oggi h: 10:52 coperto_pioggia Pioggia Foschia 20 19 93 1017 10 E 7.4
Oggi h: 10:45 coperto_pioggia Pioggia Foschia 21 19 88 1016 2 E 7.4
Oggi h: 10:11 coperto_pioggia Pioggia Foschia 21 19 88 1016 5 E/SE 9.3
Oggi h: 10:08 coperto_pioggia Pioggia Foschia 21 19 88 1016 2 E/SE 7.4
Oggi h: 09:56 coperto_pioggia Pioggia Foschia 21 19 88 1016 8 E/SE 7.4
Oggi h: 09:43 coperto_pioggia Pioggia 21 19 88 1016 13 SE 7.4
Oggi h: 08:56 coperto_pioggia Pioggia 21 19 88 1016 10 S 13
Oggi h: 08:04 coperto Coperto 21 19 88 1016 10 S 13
Oggi h: 07:56 coperto Coperto 21 19 88 1016 10 S 11.1
Oggi h: 06:56 coperto Coperto 21 19 88 1016 10 S/SO 9.3
Oggi h: 05:56 coperto Coperto 21 20 94 1016 10 S/SE 9.3
Oggi h: 05:39 coperto Coperto 21 20 94 1016 10 SE 7.4
Oggi h: 05:07 coperto Coperto 21 19 88 1016 10 S/SE 7.4
Oggi h: 04:56 coperto Coperto 21 19 88 1016 10 SE 9.3
Oggi h: 03:56 coperto Coperto 21 19 88 1017 10 N 5.5
Oggi h: 02:56 coperto Coperto 21 19 88 1017 10 N 0
Oggi h: 01:56 coperto Coperto 21 18 82 1017 10 N 0
Oggi h: 00:56 coperto Coperto 21 18 82 1018 10 N 0
Ieri h: 23:56 coperto Coperto 21 18 82 1018 10 N 0
Ieri h: 22:56 coperto Coperto 21 18 82 1018 10 N 0
Ieri h: 21:56 coperto Coperto 20 18 88 1018 10 N 5.5
Ieri h: 20:56 nuvoloso Nuvoloso 20 17 82 1018 10 N 5.5
Ieri h: 19:56 coperto Coperto 21 17 77 1019 10 N 0
Ieri h: 18:56 nuvoloso Nuvoloso 21 16 73 1019 10 S 11.1